When you browse on this site, cookies collect data to enhance your experience and personalize the content and advertising you see.
Visit our Privacy Policy to learn more. By continuing to use the site, you agree to this use of cookies and data.
  • In United Kingdom
  • List of Countries
  • For 7 days
  • Water Temperature
  • Satellite Maps
  • Weather Map
  • Weather Widgets
  • user-avatar
    Login

    Hourly Weather Istiqlol

    Today, 20 January, Sunday

    Time Temperature Precipitation Wind Pressure Humidity
    00:00 +4°C° 0 mm 3 mps 674 mmHg 47%
    01:00 +4°C° 0 mm 3 mps 674 mmHg 46%
    02:00 +3°C° 0 mm 3 mps 674 mmHg 45%
    03:00 +3°C° 0 mm 3 mps 674 mmHg 44%
    04:00 +3°C° 0 mm 3 mps 674 mmHg 44%
    05:00 +4°C° 0 mm 2 mps 673 mmHg 45%
    06:00 +4°C° 0 mm 2 mps 673 mmHg 46%
    07:00 +3°C° 0 mm 2 mps 673 mmHg 46%
    08:00 +4°C° 0 mm 1 mps 672 mmHg 47%
    09:00 +5°C° 0 mm 1 mps 673 mmHg 49%
    10:00 +6°C° 0 mm 1 mps 673 mmHg 51%
    11:00 +7°C° 0 mm 1 mps 673 mmHg 51%
    12:00 +7°C° 0 mm 1 mps 673 mmHg 51%
    13:00 +6°C° 0 mm 2 mps 673 mmHg 50%
    14:00 +6°C° 0 mm 2 mps 674 mmHg 50%
    15:00 +5°C° 0 mm 2 mps 674 mmHg 53%
    16:00 +5°C° 0 mm 1 mps 675 mmHg 56%
    17:00 +4°C° 0 mm 1 mps 675 mmHg 60%
    18:00 +3°C° 0 mm 1 mps 676 mmHg 63%
    19:00 +3°C° 0 mm 1 mps 676 mmHg 67%
    20:00 +2°C° 0 mm 1 mps 677 mmHg 71%
    21:00 +2°C° 0.1 mm 1 mps 677 mmHg 74%
    22:00 +2°C° 0.1 mm 1 mps 678 mmHg 78%
    23:00 +2°C° 0.1 mm 1 mps 678 mmHg 82%

    Tomorrow, 21 January, Monday

    Time Temperature Precipitation Wind Pressure Humidity
    00:00 +1°C° 0.2 mm 1 mps 679 mmHg 84%
    01:00 +1°C° 0.2 mm 1 mps 679 mmHg 86%
    02:00 +1°C° 0.2 mm 1 mps 679 mmHg 88%
    03:00 +1°C° 0.2 mm 1 mps 680 mmHg 89%
    04:00 0°C° 0.2 mm 1 mps 680 mmHg 90%
    05:00 0°C° 0.2 mm 1 mps 681 mmHg 91%
    06:00 0°C° 0.2 mm 1 mps 681 mmHg 91%
    07:00 0°C° 0.2 mm 1 mps 682 mmHg 92%
    08:00 0°C° 0.2 mm 1 mps 682 mmHg 92%
    09:00 0°C° 0.1 mm 1 mps 683 mmHg 90%
    10:00 -2°C° 0.1 mm 2 mps 683 mmHg 88%
    11:00 -1°C° 0.1 mm 2 mps 683 mmHg 85%
    12:00 -1°C° 0.1 mm 2 mps 683 mmHg 84%
    13:00 -1°C° 0.1 mm 2 mps 683 mmHg 83%
    14:00 +1°C° 0.1 mm 2 mps 682 mmHg 82%
    15:00 -1°C° 0 mm 2 mps 682 mmHg 83%
    16:00 -1°C° 0 mm 2 mps 683 mmHg 84%
    17:00 +1°C° 0 mm 1 mps 683 mmHg 86%
    18:00 +1°C° 0 mm 1 mps 683 mmHg 85%
    19:00 0°C° 0 mm 1 mps 683 mmHg 85%
    20:00 0°C° 0 mm 1 mps 682 mmHg 85%
    21:00 -2°C° 0 mm 2 mps 682 mmHg 79%
    22:00 -3°C° 0 mm 2 mps 681 mmHg 73%
    23:00 -3°C° 0 mm 2 mps 681 mmHg 68%

    Day after tomorrow, 22 January, Tuesday

    Time Temperature Precipitation Wind Pressure Humidity
    00:00 -3°C° 0 mm 2 mps 680 mmHg 65%
    01:00 -3°C° 0 mm 2 mps 680 mmHg 62%
    02:00 -3°C° 0 mm 2 mps 679 mmHg 59%
    03:00 -3°C° 0 mm 2 mps 679 mmHg 58%
    04:00 -3°C° 0 mm 2 mps 678 mmHg 57%
    05:00 -3°C° 0 mm 2 mps 678 mmHg 56%
    06:00 -3°C° 0 mm 2 mps 678 mmHg 55%
    07:00 -3°C° 0 mm 2 mps 678 mmHg 55%
    08:00 -3°C° 0 mm 2 mps 677 mmHg 54%
    09:00 0°C° 0 mm 1 mps 677 mmHg 52%
    10:00 +1°C° 0 mm 1 mps 677 mmHg 50%
    11:00 +3°C° 0 mm 1 mps 677 mmHg 48%
    12:00 +3°C° 0 mm 1 mps 676 mmHg 50%
    13:00 +3°C° 0 mm 1 mps 676 mmHg 52%
    14:00 +4°C° 0 mm 1 mps 676 mmHg 54%
    15:00 +3°C° 0 mm 1 mps 675 mmHg 60%
    16:00 +2°C° 0 mm 1 mps 675 mmHg 65%
    17:00 +1°C° 0 mm 1 mps 675 mmHg 71%
    18:00 +1°C° 0 mm 1 mps 676 mmHg 69%
    19:00 +1°C° 0 mm 1 mps 676 mmHg 67%
    20:00 0°C° 0 mm 1 mps 676 mmHg 66%
    21:00 0°C° 0 mm 1 mps 676 mmHg 64%
    22:00 0°C° 0 mm 1 mps 676 mmHg 62%
    23:00 0°C° 0 mm 1 mps 676 mmHg 60%

    23 January, Wednesday

    Time Temperature Precipitation Wind Pressure Humidity
    00:00 0°C° 0 mm 1 mps 676 mmHg 59%
    01:00 0°C° 0 mm 1 mps 676 mmHg 57%
    02:00 0°C° 0 mm 1 mps 677 mmHg 56%
    03:00 0°C° 0 mm 1 mps 677 mmHg 55%
    04:00 0°C° 0 mm 1 mps 677 mmHg 54%
    05:00 -1°C° 0 mm 1 mps 677 mmHg 53%
    06:00 -1°C° 0 mm 1 mps 677 mmHg 52%
    07:00 -1°C° 0 mm 1 mps 678 mmHg 52%
    08:00 -1°C° 0 mm 1 mps 678 mmHg 52%
    09:00 0°C° 0 mm 1 mps 678 mmHg 50%
    10:00 +1°C° 0 mm 1 mps 678 mmHg 48%
    11:00 +2°C° 0 mm 0 mps 679 mmHg 46%
    12:00 +3°C° 0 mm 1 mps 679 mmHg 47%
    13:00 +3°C° 0 mm 1 mps 679 mmHg 48%
    14:00 +4°C° 0 mm 1 mps 679 mmHg 49%
    15:00 +3°C° 0 mm 1 mps 679 mmHg 54%
    16:00 +2°C° 0 mm 1 mps 679 mmHg 59%
    17:00 0°C° 0 mm 0 mps 679 mmHg 65%
    18:00 +1°C° 0 mm 1 mps 680 mmHg 64%
    19:00 +1°C° 0 mm 1 mps 680 mmHg 63%
    20:00 +1°C° 0 mm 1 mps 681 mmHg 63%
    21:00 +1°C° 0 mm 1 mps 681 mmHg 61%
    22:00 -1°C° 0 mm 2 mps 681 mmHg 59%
    23:00 -2°C° 0 mm 2 mps 681 mmHg 57%

    24 January, Thursday

    Time Temperature Precipitation Wind Pressure Humidity
    00:00 -2°C° 0 mm 2 mps 681 mmHg 56%
    01:00 -2°C° 0 mm 2 mps 681 mmHg 54%
    02:00 -2°C° 0 mm 2 mps 681 mmHg 52%
    03:00 -2°C° 0 mm 2 mps 681 mmHg 51%
    04:00 -2°C° 0 mm 2 mps 682 mmHg 50%
    05:00 -2°C° 0 mm 2 mps 682 mmHg 49%
    06:00 -2°C° 0 mm 2 mps 682 mmHg 48%
    07:00 -3°C° 0 mm 2 mps 682 mmHg 47%
    08:00 -3°C° 0 mm 2 mps 683 mmHg 46%
    09:00 -1°C° 0 mm 2 mps 683 mmHg 43%
    10:00 +2°C° 0 mm 1 mps 683 mmHg 40%
    11:00 +3°C° 0 mm 1 mps 683 mmHg 37%
    12:00 +4°C° 0 mm 1 mps 683 mmHg 37%
    13:00 +4°C° 0 mm 1 mps 683 mmHg 38%
    14:00 +4°C° 0 mm 1 mps 683 mmHg 38%
    15:00 +4°C° 0 mm 1 mps 683 mmHg 43%
    16:00 +2°C° 0 mm 0 mps 683 mmHg 47%
    17:00 +1°C° 0 mm 0 mps 683 mmHg 52%
    18:00 +1°C° 0 mm 1 mps 683 mmHg 51%
    19:00 -1°C° 0 mm 2 mps 684 mmHg 51%
    20:00 -2°C° 0 mm 3 mps 684 mmHg 50%
    21:00 -2°C° 0 mm 3 mps 684 mmHg 50%
    22:00 -2°C° 0 mm 3 mps 684 mmHg 49%
    23:00 -2°C° 0 mm 3 mps 684 mmHg 48%

    25 January, Friday

    Time Temperature Precipitation Wind Pressure Humidity
    00:00 -2°C° 0 mm 3 mps 684 mmHg 48%
    01:00 -2°C° 0 mm 3 mps 683 mmHg 47%
    02:00 -2°C° 0 mm 3 mps 683 mmHg 46%
    03:00 -2°C° 0 mm 3 mps 683 mmHg 46%
    04:00 -4°C° 0 mm 3 mps 683 mmHg 45%
    05:00 -3°C° 0 mm 2 mps 683 mmHg 45%
    06:00 -3°C° 0 mm 2 mps 683 mmHg 45%
    07:00 -3°C° 0 mm 2 mps 683 mmHg 45%
    08:00 -3°C° 0 mm 2 mps 683 mmHg 44%
    09:00 -1°C° 0 mm 2 mps 683 mmHg 42%
    10:00 +1°C° 0 mm 2 mps 683 mmHg 40%
    11:00 +3°C° 0 mm 1 mps 683 mmHg 38%
    12:00 +3°C° 0 mm 1 mps 683 mmHg 38%
    13:00 +4°C° 0 mm 1 mps 682 mmHg 38%
    14:00 +4°C° 0 mm 1 mps 682 mmHg 38%
    15:00 +3°C° 0 mm 1 mps 682 mmHg 43%
    16:00 +2°C° 0 mm 0 mps 682 mmHg 47%
    17:00 +1°C° 0 mm 0 mps 682 mmHg 51%
    18:00 +2°C° 0 mm 1 mps 682 mmHg 52%
    19:00 +1°C° 0 mm 1 mps 683 mmHg 53%
    20:00 -1°C° 0 mm 2 mps 683 mmHg 54%
    21:00 -1°C° 0 mm 2 mps 682 mmHg 55%
    22:00 -1°C° 0 mm 2 mps 682 mmHg 55%
    23:00 -2°C° 0 mm 2 mps 682 mmHg 56%
    Show more